When you browse on this site, cookies collect data to enhance your experience and personalize the content and advertising you see.
Visit our Privacy Policy to learn more. By continuing to use the site, you agree to this use of cookies and data.
  • en France
  • Liste des pays
  • À 7 jours
  • Température de l'eau
  • Carte satellitaire
  • Carte météo
  • Widgets météo
  • user-avatar
    Se connecter

    Météo par heure à Adélaïde

    Ce jour, 27 Juin, Jeudi

    Heure Température Précipitation Vent Pression Humidité
    00:00 +13°C° 0 mm 5 m/s 765 mmHg 55%
    01:00 +13°C° 0 mm 5 m/s 765 mmHg 56%
    02:00 +13°C° 0 mm 5 m/s 765 mmHg 58%
    03:00 +13°C° 0 mm 5 m/s 765 mmHg 58%
    04:00 +13°C° 0 mm 5 m/s 765 mmHg 60%
    05:00 +13°C° 0 mm 5 m/s 765 mmHg 62%
    06:00 +13°C° 0 mm 4 m/s 766 mmHg 64%
    07:00 +14°C° 0 mm 5 m/s 765 mmHg 62%
    08:00 +15°C° 0 mm 5 m/s 765 mmHg 61%
    09:00 +16°C° 0 mm 5 m/s 765 mmHg 58%
    10:00 +17°C° 0 mm 5 m/s 765 mmHg 55%
    11:00 +19°C° 0 mm 6 m/s 764 mmHg 52%
    12:00 +20°C° 0 mm 6 m/s 763 mmHg 49%
    13:00 +20°C° 0 mm 6 m/s 763 mmHg 50%
    14:00 +20°C° 0 mm 5 m/s 762 mmHg 52%
    15:00 +20°C° 0 mm 5 m/s 762 mmHg 53%
    16:00 +19°C° 0 mm 5 m/s 762 mmHg 56%
    17:00 +17°C° 0 mm 5 m/s 762 mmHg 59%
    18:00 +17°C° 0 mm 4 m/s 762 mmHg 62%
    19:00 +16°C° 0 mm 5 m/s 762 mmHg 62%
    20:00 +15°C° 0 mm 5 m/s 762 mmHg 62%
    21:00 +15°C° 0 mm 6 m/s 762 mmHg 62%
    22:00 +15°C° 0 mm 6 m/s 762 mmHg 62%
    23:00 +16°C° 0 mm 6 m/s 762 mmHg 62%

    Demain, 28 Juin, Vendredi

    Heure Température Précipitation Vent Pression Humidité
    00:00 +16°C° 0 mm 6 m/s 762 mmHg 61%
    01:00 +16°C° 0 mm 6 m/s 762 mmHg 62%
    02:00 +16°C° 0 mm 6 m/s 761 mmHg 63%
    03:00 +16°C° 0 mm 6 m/s 761 mmHg 64%
    04:00 +16°C° 0 mm 6 m/s 761 mmHg 65%
    05:00 +15°C° 0 mm 6 m/s 761 mmHg 65%
    06:00 +15°C° 0 mm 6 m/s 761 mmHg 66%
    07:00 +16°C° 0 mm 6 m/s 761 mmHg 65%
    08:00 +16°C° 0 mm 7 m/s 761 mmHg 64%
    09:00 +17°C° 0 mm 7 m/s 760 mmHg 64%
    10:00 +18°C° 0 mm 7 m/s 760 mmHg 61%
    11:00 +20°C° 0 mm 7 m/s 759 mmHg 58%
    12:00 +20°C° 0 mm 7 m/s 759 mmHg 54%
    13:00 +20°C° 0 mm 7 m/s 758 mmHg 55%
    14:00 +20°C° 0 mm 6 m/s 757 mmHg 55%
    15:00 +20°C° 0 mm 6 m/s 756 mmHg 55%
    16:00 +19°C° 0 mm 6 m/s 756 mmHg 57%
    17:00 +19°C° 0 mm 6 m/s 756 mmHg 58%
    18:00 +17°C° 0 mm 6 m/s 756 mmHg 60%
    19:00 +17°C° 0 mm 6 m/s 756 mmHg 60%
    20:00 +17°C° 0 mm 6 m/s 756 mmHg 59%
    21:00 +17°C° 0 mm 7 m/s 755 mmHg 59%
    22:00 +17°C° 0 mm 7 m/s 755 mmHg 58%
    23:00 +17°C° 0 mm 6 m/s 755 mmHg 57%

    Après-demain, 29 Juin, Samedi

    Heure Température Précipitation Vent Pression Humidité
    00:00 +17°C° 0 mm 6 m/s 754 mmHg 55%
    01:00 +16°C° 0 mm 6 m/s 754 mmHg 61%
    02:00 +15°C° 0 mm 5 m/s 753 mmHg 67%
    03:00 +14°C° 0 mm 4 m/s 753 mmHg 74%
    04:00 +13°C° 1.3 mm 5 m/s 753 mmHg 79%
    05:00 +11°C° 1.3 mm 7 m/s 753 mmHg 85%
    06:00 +10°C° 1.3 mm 8 m/s 753 mmHg 91%
    07:00 +10°C° 2.1 mm 8 m/s 753 mmHg 87%
    08:00 +10°C° 2.1 mm 8 m/s 754 mmHg 84%
    09:00 +10°C° 2.1 mm 9 m/s 754 mmHg 80%
    10:00 +10°C° 0.7 mm 9 m/s 754 mmHg 79%
    11:00 +9°C° 0.7 mm 10 m/s 753 mmHg 77%
    12:00 +11°C° 0.7 mm 11 m/s 753 mmHg 76%
    13:00 +11°C° 0.9 mm 11 m/s 754 mmHg 76%
    14:00 +9°C° 0.9 mm 10 m/s 754 mmHg 76%
    15:00 +9°C° 0.9 mm 10 m/s 754 mmHg 77%
    16:00 +10°C° 0.8 mm 9 m/s 755 mmHg 78%
    17:00 +10°C° 0.8 mm 9 m/s 756 mmHg 79%
    18:00 +9°C° 0.8 mm 8 m/s 758 mmHg 81%
    19:00 +9°C° 0.2 mm 7 m/s 758 mmHg 79%
    20:00 +9°C° 0.2 mm 7 m/s 759 mmHg 78%
    21:00 +9°C° 0.2 mm 6 m/s 759 mmHg 77%
    22:00 +9°C° 0 mm 6 m/s 760 mmHg 77%
    23:00 +9°C° 0 mm 6 m/s 760 mmHg 77%

    30 Juin, Dimanche

    Heure Température Précipitation Vent Pression Humidité
    00:00 +9°C° 0 mm 6 m/s 761 mmHg 77%
    01:00 +9°C° 0 mm 6 m/s 761 mmHg 76%
    02:00 +9°C° 0 mm 6 m/s 761 mmHg 76%
    03:00 +8°C° 0 mm 5 m/s 761 mmHg 75%
    04:00 +9°C° 0 mm 5 m/s 762 mmHg 73%
    05:00 +9°C° 0 mm 5 m/s 762 mmHg 72%
    06:00 +9°C° 0 mm 5 m/s 762 mmHg 70%
    07:00 +10°C° 0 mm 6 m/s 762 mmHg 71%
    08:00 +10°C° 0 mm 6 m/s 762 mmHg 71%
    09:00 +11°C° 0 mm 6 m/s 763 mmHg 72%
    10:00 +11°C° 0.1 mm 6 m/s 763 mmHg 71%
    11:00 +11°C° 0.1 mm 7 m/s 763 mmHg 69%
    12:00 +11°C° 0.1 mm 7 m/s 763 mmHg 68%
    13:00 +11°C° 0.1 mm 7 m/s 762 mmHg 69%
    14:00 +11°C° 0.1 mm 7 m/s 762 mmHg 70%
    15:00 +11°C° 0.1 mm 6 m/s 761 mmHg 71%
    16:00 +11°C° 0.1 mm 6 m/s 762 mmHg 72%
    17:00 +10°C° 0.1 mm 6 m/s 762 mmHg 74%
    18:00 +10°C° 0.1 mm 6 m/s 762 mmHg 75%
    19:00 +10°C° 0 mm 6 m/s 762 mmHg 74%
    20:00 +10°C° 0 mm 6 m/s 762 mmHg 74%
    21:00 +10°C° 0 mm 6 m/s 762 mmHg 74%
    22:00 +10°C° 0 mm 6 m/s 762 mmHg 74%
    23:00 +10°C° 0 mm 6 m/s 762 mmHg 74%

    1 Juillet, Lundi

    Heure Température Précipitation Vent Pression Humidité
    00:00 +10°C° 0 mm 7 m/s 762 mmHg 74%
    01:00 +10°C° 0 mm 6 m/s 762 mmHg 76%
    02:00 +10°C° 0 mm 6 m/s 761 mmHg 78%
    03:00 +9°C° 0 mm 6 m/s 761 mmHg 79%
    04:00 +9°C° 0 mm 6 m/s 761 mmHg 80%
    05:00 +9°C° 0 mm 6 m/s 761 mmHg 81%
    06:00 +8°C° 0 mm 6 m/s 761 mmHg 82%
    07:00 +9°C° 0 mm 6 m/s 761 mmHg 79%
    08:00 +9°C° 0 mm 7 m/s 761 mmHg 75%
    09:00 +10°C° 0 mm 7 m/s 761 mmHg 72%
    10:00 +10°C° 0 mm 7 m/s 761 mmHg 69%
    11:00 +11°C° 0 mm 8 m/s 761 mmHg 66%
    12:00 +12°C° 0 mm 8 m/s 760 mmHg 64%
    13:00 +12°C° 0 mm 7 m/s 760 mmHg 63%
    14:00 +12°C° 0 mm 7 m/s 759 mmHg 62%
    15:00 +11°C° 0 mm 7 m/s 759 mmHg 61%
    16:00 +11°C° 0 mm 6 m/s 759 mmHg 63%
    17:00 +11°C° 0 mm 6 m/s 759 mmHg 64%
    18:00 +10°C° 0 mm 5 m/s 759 mmHg 66%
    19:00 +10°C° 0 mm 5 m/s 759 mmHg 67%
    20:00 +10°C° 0 mm 5 m/s 759 mmHg 69%
    21:00 +10°C° 0 mm 5 m/s 759 mmHg 70%
    22:00 +9°C° 0 mm 5 m/s 759 mmHg 73%
    23:00 +9°C° 0 mm 5 m/s 759 mmHg 76%

    2 Juillet, Mardi

    Heure Température Précipitation Vent Pression Humidité
    00:00 +9°C° 0 mm 5 m/s 759 mmHg 79%
    01:00 +9°C° 0.1 mm 5 m/s 759 mmHg 80%
    02:00 +9°C° 0.1 mm 5 m/s 759 mmHg 81%
    03:00 +10°C° 0.1 mm 5 m/s 759 mmHg 83%
    04:00 +10°C° 0.1 mm 4 m/s 760 mmHg 85%
    05:00 +10°C° 0.1 mm 4 m/s 760 mmHg 86%
    06:00 +10°C° 0.1 mm 3 m/s 760 mmHg 88%
    07:00 +10°C° 0.2 mm 3 m/s 761 mmHg 88%
    08:00 +11°C° 0.2 mm 3 m/s 761 mmHg 89%
    09:00 +12°C° 0.2 mm 2 m/s 762 mmHg 89%
    10:00 +13°C° 0.1 mm 2 m/s 762 mmHg 85%
    11:00 +14°C° 0.1 mm 2 m/s 762 mmHg 81%
    12:00 +15°C° 0.1 mm 2 m/s 762 mmHg 77%
    13:00 +15°C° 0 mm 2 m/s 762 mmHg 74%
    14:00 +15°C° 0 mm 2 m/s 762 mmHg 71%
    15:00 +14°C° 0 mm 3 m/s 762 mmHg 68%
    16:00 +14°C° 0 mm 2 m/s 763 mmHg 74%
    17:00 +13°C° 0 mm 2 m/s 763 mmHg 80%
    18:00 +12°C° 0 mm 1 m/s 764 mmHg 85%
    19:00 +10°C° 0 mm 2 m/s 764 mmHg 86%
    20:00 +10°C° 0 mm 2 m/s 765 mmHg 87%
    21:00 +10°C° 0 mm 2 m/s 765 mmHg 87%
    22:00 +10°C° 0 mm 2 m/s 766 mmHg 87%
    23:00 +10°C° 0 mm 1 m/s 766 mmHg 86%
    Voir plus